Zurück zum Katalog

WEOS

AktivWissenschaftSSO
NORAD 27599·PAYLOAD·🇯🇵 Japan

Gestartet Dec 14, 2002 von Tanegashima Space Center

Loading…

Nächste Überflüge (nächste 24 Stunden)

TLE

AktuellSource: Space-Track

Epoche: Sep 14, 2026, 09:03 UTC

1 27599U 02056C   26257.37712448  .00000115  00000-0  61181-4 0  9991
2 27599  98.8277 226.4635 0010603  55.9923 304.2265 14.30873099239107

Verfolge WEOS in Echtzeit mit AllMySat

Download on the App Store